Location: Newark
(52.2167°N, 10.7833°E)
Time: 17:52:42
(UTC+00:00)

N. Korean satellite - Visible Passes

Search period start: 22 September 2020 00:00
Search period end: 02 October 2020 00:00
Orbit: 455 x 503 km, 97.2° (Epoch: 21 September)

Date Brightness Start Highest point End Pass type
(mag) Time Alt. Az. Time Alt. Az. Time Alt. Az.
24 Sep 9.4 04:11:39 10° NE 04:14:40 24° E 04:17:38 10° SSE visible
25 Sep 10.0 03:46:35 10° ENE 03:48:25 13° E 03:50:12 10° ESE visible
27 Sep 8.6 04:26:42 10° NNE 04:30:05 33° E 04:33:22 10° SSE visible
28 Sep 9.7 04:01:14 10° NE 04:03:52 18° E 04:06:27 10° SE visible
29 Sep 10.5 03:37:14 10° E 03:37:33 10° E 03:37:51 10° E visible
30 Sep 7.7 04:41:52 10° NNE 04:45:25 49° E 04:48:54 10° S visible
01 Oct 9.1 04:16:10 10° NE 04:19:15 26° E 04:22:18 10° SSE visible
